+ View the NASA Portal
+ Center for Near-Earth Object Studies
IMPORTANT:
The SSD Announcement email list is now available. Major changes are coming in the near future, including possible hostname and/or URL changes. To be notified of such changes, subscribe to this email list.
Please visit
this page
for more details.
Don't show this message again
JPL Small-Body Database Browser
Search:
[
help
]
147000 (2002 PD100)
Classification:
Main-belt Asteroid
SPK-ID:
2147000
[
Ephemeris
|
Orbit Diagram
|
Orbital Elements
|
Mission Design
|
Physical Parameters
|
Discovery Circumstances
|
Close-Approach Data
]
[ show orbit diagram ]
Orbital Elements at Epoch 2458600.5 (2019-Apr-27.0) TDB
Reference:
JPL 16
(heliocentric ecliptic J2000)
Element
Value
Uncertainty (1-sigma)
Units
e
.1879117841303131
4.0559e-08
a
2.30851166318641
1.1134e-08
au
q
1.874715117871415
9.4985e-08
au
i
5.785186688187993
4.1014e-06
deg
node
85.90293719548258
4.7907e-05
deg
peri
225.1317540230568
4.9155e-05
deg
M
289.0480429701892
1.1455e-05
deg
t
p
2458852.998274464476
(2020-Jan-04.49827446)
4.1102e-05
TDB
period
1281.139839018385
3.51
9.2685e-06
2.538e-08
d
yr
n
.2809997699203808
2.0329e-09
deg/d
Q
2.742308208501405
1.3226e-08
au
Orbit Determination Parameters
# obs. used (total)
429
data-arc span
6149 days (16.84 yr)
first obs. used
2002-07-09
last obs. used
2019-05-10
planetary ephem.
DE431
SB-pert. ephem.
SB431-N16
condition code
0
norm. resid. RMS
.62362
source
ORB
producer
Otto Matic
solution date
2019-May-30 07:22:41
Additional Information
Earth MOID
= .864679 au
Jupiter MOID
= 2.52141 au
T_jup
= 3.556
[ show covariance matrix ]
[
Ephemeris
|
Orbit Diagram
|
Orbital Elements
|
Mission Design
|
Physical Parameters
|
Discovery Circumstances
|
Close-Approach Data
]
Physical Parameter Table
Parameter
Symbol
Value
Units
Sigma
Reference
Notes
absolute magnitude
H
16.5
n/a
MPO436738
147000 (2002 PD100)
Discovered 2002-Aug-14 by LINEAR at Socorro
Reference:
20070106/Numbers.arc
Last Updated:
2007-01-09
[ show close-approach data ]
[
Ephemeris
|
Orbit Diagram
|
Orbital Elements
|
Mission Design
|
Physical Parameters
|
Discovery Circumstances
|
Close-Approach Data
]
2019-Dec-16 11:24 UT
(server date/time)
Site Manager:
Ryan S. Park
Webmaster
:
Alan B. Chamberlin